Torna al catalogo

FENGYUN 1C DEB

AttivoPO
NORAD 31892·DEBRIS·🇨🇳 China

Lanciato May 10, 1999 da Taiyuan Satellite Launch Center

Loading…

Prossimi Passaggi (prossime 24 ore)

TLE

In scadenzaSource: Space-Track

Epoca: Sep 7, 2026, 09:06 UTC

1 31892U 99025CKT 26250.37984774  .00001009  00000-0  25820-3 0  9992
2 31892  99.2947  89.0379 0195617 218.0527 140.6708 14.42290831687770

Traccia FENGYUN 1C DEB in tempo reale con AllMySat

Download on the App Store